• Join FlightAware (Why Join?)
  • Login
  • US Flag 
11:36PM EDT


 

Airport Tracker/Info


-or-


 

Live Flight TrackerFlight Track Log ✈ UAL6858 ✈ 12-Apr-2013 ✈ KORD - KIAH

Flight Track Log - Related Links

Times and Time Zones

All times are in EDT time to prevent confusion due to time zone crossing. See the UAL6858 flight status page for this flight to view local times or setup timezone preferences in your user account.

Time Position Orientation Groundspeed Altitude Reporting Facility
EDT Latitude Longitude Course Direction KTS MPH feet Rate Location/Type
07:37AM 41.9667 -87.9667 180° South 196 226 4,200  Level Chicago TRACON
07:38AM 41.9000 -87.9667 180° South 243 280 7,300 3,420 Climbing Chicago TRACON
07:39AM 41.8333 -87.9667 180° South 287 330 11,100 3,300 Climbing Chicago TRACON
07:40AM 41.7325 -87.9842 187° South 313 360 14,600 2,820 Climbing Chicago Center
07:41AM 41.6414 -87.9972 186° South 328 377 17,400 3,300 Climbing Chicago Center
07:42AM 41.4870 -88.2709 180° South  Level Estimated
07:42AM 41.5242 -88.0136 186° South 351 404 21,400  Level Chicago Center
07:43AM 41.4422 -88.0250 186° South 360 414 23,000 1,980 Climbing Chicago Center
07:44AM 41.3331 -88.0558 192° South 373 429 25,500 2,280 Climbing Chicago Center
07:45AM 41.2264 -88.0908 194° South 390 449 27,700 2,160 Climbing Chicago Center
07:46AM 41.0931 -88.1286 192° South 406 467 30,000 1,800 Climbing Chicago Center
07:47AM 40.9794 -88.1617 192° South 418 481 31,400 1,560 Climbing Chicago Center
07:48AM 40.8642 -88.1981 193° South 426 490 33,300 1,980 Climbing Chicago Center
07:49AM 40.7644 -88.2672 208° Southwest 406 467 35,500 1,920 Climbing Chicago Center
07:50AM 40.6639 -88.3372 208° Southwest 406 467 37,300 1,200 Climbing Chicago Center
07:51AM 40.5653 -88.4058 208° Southwest 404 465 38,000 300 Climbing Chicago Center
07:52AM 40.4669 -88.4767 209° Southwest 403 464 38,000  Level Chicago Center
07:53AM 40.3656 -88.5450 207° Southwest 409 471 38,000 -60 Level Chicago Center
07:54AM 40.2631 -88.6158 208° Southwest 414 476 37,900 -60 Descending Chicago Center
07:55AM 40.1450 -88.6978 208° Southwest 404 465 37,900  Level Chicago Center
07:56AM 40.0850 -88.7400 208° Southwest 404 465 37,900  Level Kansas City Center
07:57AM 39.9833 -88.8086 207° Southwest 408 470 38,000  Climbing Kansas City Center
07:58AM 39.8633 -88.8933 208° Southwest 408 470 38,000  Level Kansas City Center
07:59AM 39.7622 -88.9619 208° Southwest 408 470 38,000  Level Kansas City Center
08:00AM 39.6619 -89.0297 207° Southwest 406 467 38,000  Level Kansas City Center
08:01AM 39.5619 -89.0978 208° Southwest 406 467 38,000 -60 Level Kansas City Center
08:02AM 39.4622 -89.1647 207° Southwest 403 464 37,900  Descending Kansas City Center
08:03AM 39.3753 -89.2242 208° Southwest 402 463 38,000  Climbing Kansas City Center
08:04AM 39.2558 -89.3050 208° Southwest 403 464 38,000  Level Kansas City Center
08:05AM 39.1581 -89.3697 207° Southwest 402 463 38,000  Level Kansas City Center
08:06AM 39.0519 -89.4425 208° Southwest 403 464 38,000  Level Kansas City Center
08:07AM 38.9536 -89.5069 207° Southwest 398 458 38,000  Level Kansas City Center
08:08AM 38.8561 -89.5722 208° Southwest 394 453 38,000  Level Kansas City Center
08:09AM 38.7589 -89.6372 208° Southwest 394 453 38,000  Level Kansas City Center
08:10AM 38.6656 -89.6992 207° Southwest 394 453 38,000  Level Kansas City Center
08:11AM 38.5686 -89.7617 207° Southwest 390 449 38,000  Level Kansas City Center
08:12AM 38.4711 -89.8267 208° Southwest 392 451 38,000  Level Kansas City Center
08:13AM 38.3581 -89.9000 207° Southwest 398 458 38,000  Level Kansas City Center
08:14AM 38.2606 -89.9647 208° Southwest 395 455 38,000  Level Kansas City Center
08:15AM 38.1628 -90.0283 207° Southwest 396 456 38,000  Level Kansas City Center
08:16AM 38.0550 -90.0972 207° Southwest 401 461 38,000  Level Kansas City Center
08:17AM 37.9569 -90.1611 207° Southwest 397 457 38,000  Level Kansas City Center
08:18AM 37.8586 -90.2258 207° Southwest 395 455 38,000  Level Kansas City Center
08:19AM 37.7586 -90.2881 206° Southwest 398 458 38,000  Level Kansas City Center
08:20AM 37.6597 -90.3514 207° Southwest 398 458 38,000  Level Kansas City Center
08:21AM 37.5611 -90.4142 207° Southwest 397 457 38,000  Level Kansas City Center
08:22AM 37.4625 -90.4792 208° Southwest 398 458 38,000  Level Kansas City Center
08:23AM 37.3714 -90.5394 208° Southwest 394 453 38,000  Level Memphis Center
08:24AM 37.2650 -90.6097 208° Southwest 394 453 38,000  Level Memphis Center
08:25AM 37.1669 -90.6719 207° Southwest 394 453 38,000 -60 Level Memphis Center
08:26AM 37.0689 -90.7314 206° Southwest 394 453 37,900 -60 Descending Memphis Center
08:27AM 36.9728 -90.7931 207° Southwest 389 448 37,900  Level Memphis Center
08:28AM 36.8747 -90.8522 206° Southwest 389 448 38,000  Climbing Memphis Center
08:29AM 36.7786 -90.9139 207° Southwest 389 448 38,000  Level Memphis Center
08:30AM 36.6825 -90.9728 206° Southwest 389 448 38,000  Level Memphis Center
08:31AM 36.5864 -91.0314 206° Southwest 389 448 38,000  Level Memphis Center
08:32AM 36.4900 -91.0900 206° Southwest 384 442 38,000 -60 Level Memphis Center
08:33AM 36.3939 -91.1511 207° Southwest 384 442 37,900  Descending Memphis Center
08:34AM 36.2975 -91.2067 205° Southwest 389 448 38,000  Climbing Memphis Center
08:35AM 36.1992 -91.2675 207° Southwest 389 448 38,000  Level Memphis Center
08:36AM 36.1028 -91.3281 207° Southwest 389 448 38,000  Level Memphis Center
08:37AM 36.0064 -91.3858 206° Southwest 389 448 38,000  Level Memphis Center
08:38AM 35.9247 -91.4389 208° Southwest 382 440 38,000  Level Memphis Center
08:39AM 35.8261 -91.4939 204° Southwest 382 440 38,000  Level Memphis Center
08:40AM 35.7317 -91.5564 208° Southwest 387 445 38,000  Level Memphis Center
08:41AM 35.6269 -91.6161 205° Southwest 387 445 38,000 -60 Level Memphis Center
08:42AM 35.5325 -91.6736 206° Southwest 387 445 37,900  Descending Memphis Center
08:43AM 35.4358 -91.7331 207° Southwest 387 445 38,000  Climbing Memphis Center
08:44AM 35.3392 -91.7900 206° Southwest 387 445 38,000  Level Memphis Center
08:45AM 35.2425 -91.8469 206° Southwest 387 445 38,000  Level Memphis Center
08:46AM 35.1439 -91.9011 204° Southwest 387 445 38,000  Level Memphis Center
08:47AM 35.0514 -91.9603 208° Southwest 387 445 38,000  Level Memphis Center
08:48AM 34.9567 -92.0167 206° Southwest 387 445 38,000  Level Memphis Center
08:49AM 34.8581 -92.0731 205° Southwest 387 445 38,000  Level Memphis Center
08:50AM 34.7633 -92.1292 206° Southwest 387 445 38,000  Level Memphis Center
08:51AM 34.6667 -92.1753 201° Southwest 387 445 38,000  Level Memphis Center
08:52AM 34.5536 -92.2056 192° South 392 451 38,000  Level Memphis Center
08:53AM 34.4447 -92.2208 187° South 401 461 38,000  Level Memphis Center
08:54AM 34.3317 -92.2461 190° South 407 468 38,000 -60 Level Memphis Center
08:55AM 34.2208 -92.2661 188° South 407 468 37,900  Descending Memphis Center
08:56AM 34.1097 -92.2889 190° South 413 475 38,000 -360 Climbing Memphis Center
08:58AM 33.9511 -92.3183 189° South 393 452 37,000 -780 Descending Fort Worth Center
08:59AM 33.8433 -92.3372 188° South 393 452 36,000 -540 Descending Fort Worth Center
09:00AM 33.7378 -92.3583 189° South 393 452 36,000  Level Fort Worth Center
09:01AM 33.6258 -92.3772 188° South 393 452 36,000 -60 Level Fort Worth Center
09:02AM 33.5200 -92.3956 188° South 388 447 35,900 -60 Descending Fort Worth Center
09:03AM 33.4122 -92.4142 188° South 388 447 35,900  Level Fort Worth Center
09:04AM 33.3047 -92.4353 189° South 388 447 36,000  Climbing Fort Worth Center
09:05AM 33.1825 -92.4569 188° South 396 456 36,000  Level Fort Worth Center
09:06AM 33.0744 -92.4753 188° South 396 456 36,000 -60 Level Fort Worth Center
09:07AM 32.9628 -92.4964 189° South 402 463 35,900  Descending Fort Worth Center
09:08AM 32.8550 -92.5147 188° South 402 463 36,000  Climbing Fort Worth Center
09:10AM 32.6442 -92.5569 190° South 396 456 36,000 -60 Level Houston Center
09:11AM 32.5431 -92.5736 188° South 398 458 35,900 -60 Descending Houston Center
09:12AM 32.4333 -92.5931 189° South 398 458 35,900  Level Houston Center
09:13AM 32.3236 -92.6139 189° South 400 460 35,900  Level Houston Center
09:14AM 32.1908 -92.6369 188° South 402 463 35,900  Level Houston Center
09:15AM 32.0808 -92.6572 189° South 401 461 35,900  Level Houston Center
09:16AM 31.9742 -92.6903 195° South 399 459 35,900  Level Houston Center
09:17AM 31.8867 -92.7586 214° Southwest 383 441 35,900  Level Houston Center
09:18AM 31.8058 -92.8389 220° Southwest 380 437 35,900  Level Houston Center
09:19AM 31.7239 -92.9175 219° Southwest 380 437 35,900  Level Houston Center
09:20AM 31.6431 -92.9961 220° Southwest 379 436 35,900  Level Houston Center
09:21AM 31.5458 -93.0892 219° Southwest 376 433 35,900  Level Houston Center
09:22AM 31.4631 -93.1694 220° Southwest 383 441 35,900  Level Houston Center
09:23AM 31.3822 -93.2472 219° Southwest 380 437 35,900  Level Houston Center
09:24AM 31.2981 -93.3278 219° Southwest 376 433 36,000  Climbing Houston Center
09:25AM 31.2194 -93.4022 219° Southwest 378 435 35,900 -60 Descending Houston Center
09:26AM 31.1383 -93.4797 219° Southwest 379 436 35,900  Level Houston Center
09:27AM 31.0406 -93.5719 219° Southwest 377 434 35,900  Level Houston Center
09:28AM 30.9600 -93.6486 219° Southwest 377 434 35,900 -180 Level Houston Center
09:29AM 30.8789 -93.7250 219° Southwest 377 434 35,600 -1,500 Descending Houston Center
09:30AM 30.7964 -93.8019 219° Southwest 380 437 32,800 -2,760 Descending Houston Center
09:31AM 30.7139 -93.8808 219° Southwest 385 443 29,900 -2,820 Descending Houston Center
09:32AM 30.6322 -93.9569 219° Southwest 380 437 27,000 -3,120 Descending Houston Center
09:33AM 30.5422 -94.0414 219° Southwest 351 404 23,600 -4,260 Descending Houston Center
09:34AM 30.4750 -94.1047 219° Southwest 334 384 18,900 -3,900 Descending Houston Center
09:35AM 30.3958 -94.1778 219° Southwest 344 396 15,600 -2,760 Descending Houston Center
09:36AM 30.3617 -94.2097 219° Southwest 345 397 14,800 -2,340 Descending Houston Center
09:37AM 30.3242 -94.2453 219° Southwest 334 384 13,200 -2,520 Descending Houston Center
09:37AM 30.2981 -94.2689 218° Southwest 329 379 12,500 -960 Descending Houston Center
09:38AM 30.2250 -94.3367 219° Southwest 328 377 12,000 -1,260 Descending Houston Center
09:39AM 30.1922 -94.4039 241° Southwest 308 354 10,300 -1,740 Descending Houston Center
09:39AM 30.1844 -94.4364 255° West 309 356 10,100 -420 Descending Houston Center
09:40AM 30.1756 -94.4944 260° West 296 341 9,900 -120 Descending Houston Center
09:41AM 30.1600 -94.5853 259° West 289 333 9,900  Level Houston Center
09:42AM 30.1444 -94.6761 259° West 289 333 9,900  Level Houston Center
09:43AM 30.1250 -94.7853 258° West 340 391 9,900  Level Houston Center
09:44AM 30.1047 -94.9256 261° West 366 421 9,900 -300 Level Houston Center
09:45AM 30.1072 -95.0231 272° West 313 360 9,400 -1,200 Descending Houston Center
09:46AM 30.1064 -95.1353 270° West 280 322 7,300 -1,560 Descending Houston Center
09:47AM 30.1072 -95.1983 271° West 276 318 6,200 -780 Descending Houston Center
09:48AM 30.1072 -95.2800 270° West 259 298 5,900 -180 Descending Houston Center
09:49AM 30.1072 -95.3792 270° West 258 297 5,900 -900 Level Houston Center
09:50AM 30.1064 -95.4614 269° West 258 297 4,100 -1,200 Descending Houston Center
09:51AM 30.0517 -95.4986 210° Southwest 257 296 3,400 -960 Descending Houston Center
09:52AM 30.0094 -95.4536 137° Southeast 187 215 2,200 -1,200 Descending Houston Center
09:53AM 30.0069 -95.4033 93° East 127 146 1,000 -1,020 Descending Houston Center
09:54AM 30.0072 -95.3644 90° East 124 143 200 -780 Descending Houston Center